Sigfox identifier Datetime Temperature Humidity SNR
00388BBE 2018-10-09 09:15:45 21.6 38 17.4
00388BBE 2018-10-09 08:09:19 21.6 37 17.4
00388BBE 2018-10-09 07:02:53 21.6 37 17.4
00388BBE 2018-10-09 05:56:24 21.6 37 17.3
00388BBE 2018-10-09 04:49:58 21.6 37 17.3
00388BBE 2018-10-09 01:30:43 21.6 37 17.2
00388BBE 2018-10-09 00:24:18 21.6 37 17.2
00388BBE 2018-10-08 23:17:56 21.6 37 17.2
00388BBE 2018-10-08 22:11:27 21.6 37 17.1
00388BBE 2018-10-08 21:05:01 21.6 36 17
00388BBE 2018-10-08 19:58:36 21.6 36 17
00388BBE 2018-10-08 17:45:43 21.4 36 16.9
00388BBE 2018-10-08 16:39:18 21.4 36 16.9
00388BBE 2018-10-08 14:26:27 21.3 36 16.8
00388BBE 2018-10-08 06:41:24 21.1 38 16.8
00388BBE 2018-10-08 05:34:58 21.2 38 16.8
00388BBE 2018-10-08 04:28:36 21.2 38 16.8
00388BBE 2018-10-08 03:22:13 21.2 38 9.2
00388BBE 2018-10-08 02:15:48 21.2 38 9.3
00388BBE 2018-10-08 01:09:21 21.2 38 9.8
00388BBE 2018-10-07 22:56:29 21.2 38 9.7
00388BBE 2018-10-07 21:50:04 21.3 38 9.6
00388BBE 2018-10-07 20:43:37 21.3 38 9.4
00388BBE 2018-10-07 19:37:11 21.4 38 9.5
00388BBE 2018-10-07 17:24:24 21.4 38 9.9
00388BBE 2018-10-07 16:17:57 21.4 38 10
00388BBE 2018-10-07 15:11:28 21.4 38 10.3
00388BBE 2018-10-07 14:04:58 21.4 38 10.2
00388BBE 2018-10-07 12:58:34 21.4 38 10.5
00388BBE 2018-10-07 11:52:08 21.4 38 10.5
00388BBE 2018-10-07 09:39:17 21.4 39 10.8
00388BBE 2018-10-07 08:32:52 21.4 39 10.8
00388BBE 2018-10-07 07:26:28 21.4 39 10.7
00388BBE 2018-10-07 06:20:00 21.4 39 10.8
00388BBE 2018-10-07 05:13:32 21.4 39 10.8
00388BBE 2018-10-07 04:07:02 21.5 39 10.8
00388BBE 2018-10-07 03:00:40 21.5 39 10.8
00388BBE 2018-10-07 01:54:11 21.5 39 10.9
00388BBE 2018-10-07 00:47:44 21.6 39 10.9
00388BBE 2018-10-06 22:34:50 21.6 39 10.9
00388BBE 2018-10-06 21:28:25 21.6 39 11
00388BBE 2018-10-06 20:21:56 21.6 39 10.8
00388BBE 2018-10-06 19:15:30 21.6 39 10.8
00388BBE 2018-10-06 18:09:01 21.6 39 10.6
00388BBE 2018-10-06 17:02:37 21.6 39 10.1
00388BBE 2018-10-06 15:56:10 21.6 39 10.2
00388BBE 2018-10-06 14:49:40 21.6 39 10.7
00388BBE 2018-10-06 13:43:16 21.6 39 10.9
00388BBE 2018-10-06 12:36:48 21.6 39 11.1
00388BBE 2018-10-06 11:30:26 21.6 39 10.9
00388BBE 2018-10-06 10:23:57 21.6 39 10.9
00388BBE 2018-10-06 09:17:34 21.6 39 10.8
00388BBE 2018-10-06 08:11:11 21.8 39 11.1
00388BBE 2018-10-06 07:04:44 21.8 39 10.9
00388BBE 2018-10-06 05:58:21 21.8 39 10.9
00388BBE 2018-10-06 04:52:01 21.8 39 11.3
00388BBE 2018-10-06 03:45:30 21.8 39 12
00388BBE 2018-10-06 02:39:03 21.8 39 12
00388BBE 2018-10-06 01:32:37 21.8 39 13.1
00388BBE 2018-10-06 00:26:11 21.8 39 14
00388BBE 2018-10-05 23:19:49 21.9 39 15.2
00388BBE 2018-10-05 22:13:21 22 39 15.6
00388BBE 2018-10-05 21:06:56 22 39 16.6
00388BBE 2018-10-05 20:00:31 22 39 16.6
00388BBE 2018-10-05 18:54:04 22 39 17.2
00388BBE 2018-10-05 17:47:39 22 38 17.8
00388BBE 2018-10-05 16:41:13 22 38 18.1
00388BBE 2018-10-05 15:34:49 21.9 37 18.5
00388BBE 2018-10-05 14:28:23 21.8 36 19
00388BBE 2018-10-05 13:22:03 21.7 36 19.3
00388BBE 2018-10-05 11:09:10 21.6 34 19.6
00388BBE 2018-10-05 04:30:43 21.2 33 19.6
00388BBE 2018-10-05 02:17:57 21.4 33 19.8
00388BBE 2018-10-05 01:11:25 21.4 33 19.9
00388BBE 2018-10-05 00:05:02 21.4 33 19.9
00388BBE 2018-10-04 20:45:50 21.4 33 20.2
00388BBE 2018-10-04 19:39:27 21.4 33 20.2
00388BBE 2018-10-04 18:32:59 21.2 33 20.2
00388BBE 2018-10-04 17:26:36 21.2 33 20.4
00388BBE 2018-10-04 16:20:12 21.2 33 20.6
00388BBE 2018-10-04 15:13:45 21 33 20.7
00388BBE 2018-10-04 14:07:22 20.7 33 20.8
00388BBE 2018-10-04 13:00:53 20.7 34 21
00388BBE 2018-10-04 11:54:26 20.7 35 21
00388BBE 2018-10-04 10:47:59 20.6 36 21
00388BBE 2018-10-04 09:41:33 20.5 36 20.8
00388BBE 2018-10-04 08:35:06 20.5 36 20.9
00388BBE 2018-10-04 07:28:39 20.5 38 20.6
00388BBE 2018-10-04 06:22:19 20.5 39 20.9
00388BBE 2018-10-04 05:15:49 20.5 40 20.7
00388BBE 2018-10-04 04:09:25 20.5 40 20.4
00388BBE 2018-10-04 03:03:03 20.5 40 20.4
00388BBE 2018-10-04 01:56:41 20.6 41 20.2
00388BBE 2018-10-04 00:50:17 20.6 41 19.7
00388BBE 2018-10-03 23:43:55 20.7 42 19.4
00388BBE 2018-10-03 22:37:31 20.7 42 18.7
00388BBE 2018-10-03 21:31:09 20.7 42 18.8
00388BBE 2018-10-03 20:24:47 20.7 43 18.5
00388BBE 2018-10-03 19:18:24 20.7 43 18.7
00388BBE 2018-10-03 18:12:02 20.7 43 19.4
00388BBE 2018-10-03 17:05:40 20.8 44 16.6
00388BBE 2018-10-03 15:59:17 21 45 18.8
00388BBE 2018-10-03 14:52:56 20.9 45 0